FW3867 Weather Reports


time (UTC)temp
F
wind
direction
speed
knots
gust
knots
rain 1hr
in
rain 24hr
in
rain mn
in
humidity
%
barometer
mb
20260506024542 46 28 4.3 7.8 0.03 0.18 0.18 95 1009.6
20260506023039 46 27 6.1 9.6 0.03 0.18 0.18 94 1009.6
20260506021537 46 10 6.1 9.6 0.03 0.18 0.18 93 1009.3
20260506020005 47 360 5.2 8.7 0.01 0.16 0.16 91 1009.6
20260506014509 47 27 6.1 13.9 0.00 0.15 0.15 90 1009.5
20260506013059 47 27 8.7 13.0 0.00 0.15 0.15 89 1009.4
20260506011558 48 28 10.4 15.6 0.00 0.15 0.15 89 1009.3
20260506010054 48 9 9.6 15.6 0.00 0.15 0.15 89 1009.1
20260506004555 51 28 11.3 16.5 0.00 0.15 0.15 89 1008.6
20260506003044 54 28 10.4 15.6 0.00 0.15 0.15 87 1008.2
20260506001604 57 28 8.7 15.6 0.00 0.15 0.15 85 1007.9
20260506000047 58 17 7.8 13.9 0.00 0.15 0.15 85 1008.2
20260505234548 59 19 4.3 9.6 0.00 0.15 0.15 85 1007.9
20260505233037 61 28 7.0 11.3 0.00 0.15 0.15 82 1007.3
20260505231534 64 345 1.7 7.0 0.00 0.15 0.15 70 1006.7
20260505230036 64 280 3.5 9.6 0.00 0.15 0.15 71 1006.5
20260505224537 65 282 6.1 11.3 0.00 0.15 0.15 71 1006.6
20260505223039 66 236 9.6 21.7 0.00 0.15 0.15 69 1006.5
20260505221527 69 209 7.8 15.6 0.00 0.15 0.15 57 1005.9
20260505220035 69 267 7.8 15.6 0.00 0.15 0.15 56 1005.8
20260505214544 69 261 10.4 16.5 0.00 0.15 0.15 56 1005.7
20260505213038 70 254 8.7 17.4 0.00 0.15 0.15 54 1005.6
20260505211521 70 265 12.2 20.9 0.00 0.15 0.15 56 1005.3
20260505210020 70 283 8.7 20.0 0.00 0.15 0.15 58 1005.2
20260505204527 69 219 13.0 26.9 0.00 0.15 0.15 60 1005.3
20260505203119 69 278 8.7 23.5 0.00 0.15 0.15 64 1005.4
20260505201554 69 264 14.8 24.3 0.00 0.15 0.15 64 1005.6
20260505200048 68 268 14.8 27.8 0.00 0.15 0.15 64 1005.7
20260505194543 66 236 11.3 23.5 0.00 0.15 0.15 70 1005.8
20260505193048 66 248 10.4 16.5 0.00 0.15 0.15 73 1005.8
20260505191550 65 224 11.3 16.5 0.04 0.15 0.15 74 1005.9
20260505190046 65 245 10.4 18.2 0.10 0.15 0.15 75 1006.1
20260505184537 66 280 3.5 8.7 0.15 0.15 0.15 74 1005.8
20260505183047 65 280 3.5 7.8 0.15 0.15 0.15 78 1005.6
20260505181535 63 325 4.3 8.7 0.11 0.11 0.11 78 1005.2
20260505180040 63 274 11.3 23.5 0.04 0.04 0.04 71 1005.8
20260505174537 69 248 8.7 16.5 0.00 0.00 0.00 62 1005.4
20260505173037 70 248 7.8 21.7 0.00 0.00 0.00 56 1005.3
20260505171533 70 240 10.4 19.1 0.00 0.00 0.00 56 1005.6
20260505170026 69 232 10.4 19.1 0.00 0.00 0.00 56 1005.8
20260505164533 68 240 12.2 26.9 0.00 0.00 0.00 56 1005.8
20260505163024 69 225 13.0 20.0 0.00 0.00 0.00 55 1005.9
20260505161521 69 238 11.3 20.9 0.00 0.00 0.00 55 1005.3
20260505153103 69 257 13.9 32.2 0.00 0.00 0.00 56 1005.8
20260505151546 69 261 10.4 31.3 0.00 0.00 0.00 57 1005.8
20260505124515 62 227 11.3 20.9 0.00 0.00 0.00 71 1005.6
20260505123011 61 242 14.8 21.7 0.00 0.00 0.00 72 1005.7
20260505121510 60 225 9.6 21.7 0.00 0.00 0.00 74 1006.0
20260505120008 60 219 11.3 19.1 0.00 0.00 0.00 75 1006.1
20260505114506 59 207 10.4 15.6 0.00 0.00 0.00 78 1006.0
20260505113008 58 209 8.7 14.8 0.00 0.00 0.00 80 1006.0
20260505111536 57 255 11.3 17.4 0.00 0.00 0.00 83 1005.9
20260505101529 56 227 9.6 15.6 0.00 0.00 0.00 85 1005.1
20260505100031 56 232 13.0 18.2 0.00 0.00 0.00 85 1005.1
20260505094604 56 222 12.2 21.7 0.00 0.00 0.00 84 1005.1
20260505093055 58 220 17.4 33.9 0.00 0.00 0.00 77 1005.1
20260505091549 61 271 17.4 26.1 0.00 0.00 0.00 68 1005.7
20260505090053 60 223 11.3 21.7 0.00 0.00 0.00 70 1005.4
20260505084545 59 237 13.0 20.0 0.00 0.00 0.00 71 1005.4
20260505083043 59 223 13.9 16.5 0.00 0.00 0.00 71 1005.1
20260505081545 58 215 8.7 14.8 0.00 0.00 0.00 71 1005.0
20260505080049 59 211 8.7 13.9 0.00 0.00 0.00 70 1005.1
20260505074533 59 231 9.6 14.8 0.00 0.00 0.00 69 1005.3
20260505073044 60 234 9.6 13.9 0.00 0.00 0.00 68 1005.3
20260505071529 60 225 11.3 17.4 0.00 0.00 0.00 68 1005.2
20260505070027 60 230 9.6 14.8 0.00 0.00 0.00 67 1005.3
20260505064525 60 231 11.3 15.6 0.00 0.00 0.00 68 1005.4
20260505063023 60 239 10.4 16.5 0.00 0.00 0.00 67 1005.4
20260505061521 60 236 11.3 17.4 0.00 0.00 0.00 67 1005.6
20260505060023 60 232 10.4 17.4 0.00 0.00 0.00 66 1005.6
20260505054512 60 223 9.6 14.8 0.00 0.00 0.00 66 1005.7
20260505053016 61 230 9.6 15.6 0.00 0.00 0.00 65 1005.8
20260505051508 61 254 8.7 13.9 0.00 0.00 0.00 64 1006.0
20260505050116 61 234 8.7 14.8 0.00 0.00 0.00 64 1006.0
20260505041547 61 238 9.6 13.9 0.00 0.00 0.00 61 1006.1
20260505040030 61 234 8.7 13.0 0.00 0.00 0.00 58 1006.0
20260505034529 62 240 8.7 13.0 0.00 0.00 0.00 56 1006.0
20260505033027 62 232 10.4 15.6 0.00 0.00 0.00 54 1005.7
20260505031527 61 237 9.6 13.9 0.00 0.00 0.00 52 1006.0
20260505030034 60 223 7.0 10.4 0.00 0.00 0.00 53 1006.0